[[{"header":{"parameterUnit":"m.s-1","parameterCategory":1,"la1":30.2991,"la2":30.254,"lo1":-89.0895,"lo2":-89.0444,"dy":0.0017,"dx":0.0017,"nx":28,"ny":28,"refTime":"2024-06-14T09:00:00:Z","depth":0,"parameterNumber":2,"parameterNumberName":"U-component_of_WINDS"},"data":[0,0,0,0,0,0,0,0,0,0,0,0,0,0,0,0,0,0,0,0,0,0,0,0,0,0,0,0,0,0,0,0,0,0,0,0,0,0,0,0,0,0,0,0,0,0,0,0,0,0,0,0,0,0,0,0,0,0,-0.3551,-0.3551,0,-0.3559,-0.3559,-0.3559,-0.3541,-0.354,-0.3539,-0.3539,-0.3547,-0.3548,-0.3549,0,0,0,0,0,0,0,0,0,0,0,0,0,-0.352,-0.3521,-0.3551,-0.3551,-0.3551,-0.3559,-0.3559,-0.3559,-0.3541,-0.354,-0.3539,-0.3539,-0.3547,-0.3548,-0.3549,0,0,0,0,0,0,0,0,0,0,0,0,0,-0.3532,-0.3521,-0.3551,-0.3543,-0.3542,-0.3559,-0.3559,-0.3559,-0.3541,-0.354,-0.3539,-0.3538,-0.3547,-0.3548,-0.3549,-0.3574,0,0,-0.3553,-0.3553,0,0,0,0,0,0,0,0,-0.3531,-0.3533,-0.3544,-0.3543,-0.3543,-0.3548,-0.3551,-0.3564,-0.3541,-0.3541,-0.3539,-0.3538,-0.3548,-0.3549,-0.3553,-0.3574,-0.3574,-0.3553,-0.3553,-0.3554,-0.3554,0,0,0,0,0,0,0,-0.353,-0.3532,-0.3554,-0.3544,-0.3543,-0.3539,-0.354,-0.3553,-0.355,-0.3541,-0.354,-0.3541,-0.3548,-0.3552,-0.3553,-0.3575,-0.3553,-0.3554,-0.3554,-0.3555,-0.3617,-0.3618,0,0,0,0,0,0,-0.353,-0.3532,-0.3554,-0.3554,-0.3535,-0.354,-0.3541,-0.3547,-0.3549,-0.3549,-0.3542,-0.354,-0.355,-0.3551,-0.3553,-0.3582,-0.3554,-0.3555,-0.3556,-0.3616,-0.3617,-0.3618,0,0,0,0,0,0,-0.353,-0.3533,-0.3553,-0.3543,-0.3545,-0.3542,-0.3549,-0.3548,-0.3551,-0.355,-0.3549,-0.3547,-0.3549,-0.3551,-0.3569,-0.3582,-0.3556,-0.3557,-0.3615,-0.3616,-0.3617,-0.3641,0,0,0,0,0,0,-0.3529,-0.3532,-0.3542,-0.3543,-0.3546,-0.3569,-0.355,-0.3548,-0.3553,-0.3551,-0.3554,-0.3554,-0.3549,-0.3567,-0.357,-0.3583,-0.3557,-0.3613,-0.3615,-0.3617,-0.3639,-0.3643,-0.3647,0,0,0,0,0,-0.3528,-0.3548,-0.3542,-0.3545,-0.3557,-0.357,-0.3571,-0.3565,-0.3555,-0.3564,-0.3563,-0.3554,-0.358,-0.3569,-0.3572,-0.3586,-0.3613,-0.3615,-0.3617,-0.3637,-0.3642,-0.3646,0,0,0,0,0,0,-0.3549,-0.3548,-0.3542,-0.3563,-0.3567,-0.3567,-0.3579,-0.3571,-0.3578,-0.3576,-0.3568,-0.3569,-0.3588,-0.3588,-0.3576,-0.361,-0.3595,-0.3597,-0.3609,-0.3614,-0.3617,-0.3617,-0.3558,0,0,0,0,0,-0.3556,-0.3566,-0.3565,-0.3584,-0.3586,-0.3582,-0.3587,-0.3582,-0.3586,-0.3587,-0.3588,-0.3592,-0.3601,-0.3607,-0.3616,-0.3639,-0.3639,-0.365,-0.3654,-0.3657,-0.366,-0.3672,-0.3677,-0.3625,-0.3625,-0.3625,0,0,-0.3571,-0.3572,-0.3579,-0.3588,-0.359,-0.3601,-0.3583,-0.3596,-0.3604,-0.3589,-0.3606,-0.3606,-0.361,-0.363,-0.3639,-0.3632,-0.3674,-0.3659,-0.3662,-0.3663,-0.3675,-0.368,-0.3684,-0.3626,-0.3626,-0.3626,0,0,-0.3604,-0.3605,-0.3621,-0.3623,-0.3627,-0.3624,-0.3628,-0.3629,-0.3629,-0.3645,-0.3634,-0.3644,-0.366,-0.3663,-0.3667,-0.37,-0.3692,-0.3703,-0.3723,-0.3736,-0.374,-0.3743,-0.3756,-0.3761,-0.3706,-0.3706,-0.3706,0,-0.3622,-0.3638,-0.363,-0.3643,-0.3648,-0.3635,-0.3651,-0.3654,-0.366,-0.3664,-0.3654,-0.3674,-0.3676,-0.3697,-0.3705,-0.3708,-0.3713,-0.3704,-0.374,-0.3743,-0.3747,-0.3759,-0.3763,-0.3707,-0.3707,-0.3707,-0.3707,0,-0.366,-0.3672,-0.3684,-0.369,-0.3696,-0.3711,-0.3705,-0.3712,-0.3706,-0.3704,-0.3721,-0.3723,-0.3731,-0.3735,-0.373,-0.3756,-0.3751,-0.3741,-0.3726,-0.3753,-0.3764,-0.3769,-0.3709,-0.3709,-0.3708,-0.3708,0,0,-0.3708,-0.3709,-0.3714,-0.3716,-0.3719,-0.3728,-0.3742,-0.375,-0.3756,-0.376,-0.3772,-0.3786,-0.3776,-0.3781,-0.3775,-0.3786,-0.3813,-0.3775,-0.3775,-0.3782,-0.3842,-0.3851,-0.3856,-0.3807,-0.3808,-0.3809,-0.3842,0,-0.3741,-0.3765,-0.3758,-0.3782,-0.3793,-0.378,-0.3792,-0.3795,-0.3793,-0.3802,-0.38,-0.381,-0.3797,-0.3799,-0.3809,-0.3808,-0.3825,-0.3805,-0.3819,-0.3819,-0.3819,-0.3862,-0.3871,-0.3903,-0.3847,-0.3847,-0.3848,0,-0.3783,-0.3789,-0.3814,-0.3815,-0.3819,-0.383,-0.3837,-0.3845,-0.3848,-0.3846,-0.3851,-0.3843,-0.3857,-0.384,-0.386,-0.3846,-0.3851,-0.3851,-0.3852,-0.3854,-0.3836,-0.3866,-0.3913,-0.3918,-0.3854,-0.3854,-0.3853,0,-0.3816,-0.383,-0.3847,-0.385,-0.3851,-0.3859,-0.386,-0.3862,-0.3867,-0.3873,-0.3877,-0.3884,-0.3888,-0.3894,-0.3889,-0.3877,-0.3909,-0.3892,-0.3908,-0.3909,-0.3917,-0.3916,-0.3966,-0.3918,-0.3918,-0.3918,-0.3918,0,-0.3854,-0.3871,-0.3862,-0.3873,-0.389,-0.3882,-0.39,-0.3899,-0.3901,-0.3912,-0.39,-0.391,-0.3902,-0.3911,-0.3907,-0.3924,-0.3925,-0.3925,-0.3923,-0.3926,-0.3927,-0.393,-0.3928,-0.3919,-0.3919,-0.3919,-0.3918,0,-0.3895,-0.389,-0.3908,-0.3907,-0.3907,-0.392,-0.392,-0.393,-0.3927,-0.394,-0.3943,-0.3938,-0.3949,-0.3943,-0.3954,-0.3951,-0.3973,-0.3968,-0.3972,-0.3971,-0.3988,-0.3987,-0.4043,-0.405,-0.3997,-0.3997,-0.3998,0,-0.3921,-0.3933,-0.3933,-0.3939,-0.3941,-0.3951,-0.3956,-0.3948,-0.3954,-0.3958,-0.3967,-0.3976,-0.3984,-0.4,-0.3998,-0.4006,-0.4002,-0.4021,-0.4004,-0.4006,-0.4004,-0.4004,-0.4005,-0.4025,-0.4026,-0.4026,-0.4027,0,-0.3966,-0.3963,-0.3971,-0.3978,-0.3985,-0.399,-0.3994,-0.4,-0.3992,-0.3999,-0.4009,-0.4015,-0.4025,-0.4035,-0.4042,-0.4043,-0.4034,-0.4032,-0.4037,-0.404,-0.4042,-0.4042,-0.3983,-0.4031,-0.4031,-0.4031,-0.403,-0.403,-0.4001,-0.4011,-0.4013,-0.4022,-0.4025,-0.4029,-0.4038,-0.4036,-0.4044,-0.4053,-0.4047,-0.4059,-0.4062,-0.407,-0.4072,-0.4081,-0.4074,-0.408,-0.4082,-0.4084,-0.4087,-0.404,-0.4082,-0.4082,-0.4082,-0.4082,-0.4082,0,-0.4047,-0.4048,-0.4056,-0.4062,-0.407,-0.406,-0.4064,-0.4071,-0.4082,-0.4084,-0.4091,-0.4103,-0.4112,-0.411,-0.4118,-0.4126,-0.4123,-0.4129,-0.4129,-0.4129,-0.4092,-0.4088,-0.4132,-0.4132,-0.4132,-0.4132,-0.4132,-0.4132,-0.4072,-0.4089,-0.4086,-0.4104,-0.4104,-0.4116,-0.4119,-0.4123,-0.4125,-0.4139,-0.4146,-0.4145,-0.4146,-0.4154,-0.4162,-0.4161,-0.4165,-0.4173,-0.4171,-0.4137,-0.4132,-0.4127,-0.4123,-0.4174,-0.4174,-0.4207,-0.4208,-0.4208]},{"header":{"parameterUnit":"m.s-1","parameterCategory":1,"la1":30.2991,"la2":30.254,"lo1":-89.0895,"lo2":-89.0444,"dy":0.0017,"dx":0.0017,"nx":28,"ny":28,"refTime":"2024-06-14T09:00:00:Z","depth":0,"parameterNumber":3,"parameterNumberName":"V-component_of_WINDS"},"data":[0,0,0,0,0,0,0,0,0,0,0,0,0,0,0,0,0,0,0,0,0,0,0,0,0,0,0,0,0,0,0,0,0,0,0,0,0,0,0,0,0,0,0,0,0,0,0,0,0,0,0,0,0,0,0,0,0,0,-1.4941,-1.4942,0,-1.4978,-1.4979,-1.4979,-1.4965,-1.4965,-1.4964,-1.4963,-1.5002,-1.5004,-1.5006,0,0,0,0,0,0,0,0,0,0,0,0,0,-1.486,-1.4861,-1.4941,-1.4942,-1.4942,-1.4978,-1.4979,-1.4979,-1.4966,-1.4965,-1.4964,-1.4963,-1.5002,-1.5004,-1.5006,0,0,0,0,0,0,0,0,0,0,0,0,0,-1.4896,-1.4862,-1.4941,-1.494,-1.494,-1.4978,-1.4979,-1.498,-1.4966,-1.4965,-1.4963,-1.4962,-1.5001,-1.5004,-1.5006,-1.5049,0,0,-1.5015,-1.5016,0,0,0,0,0,0,0,0,-1.4894,-1.4899,-1.4939,-1.494,-1.494,-1.4966,-1.4965,-1.5003,-1.4966,-1.4956,-1.4963,-1.4961,-1.4991,-1.4995,-1.5005,-1.5051,-1.5052,-1.5015,-1.5017,-1.5018,-1.5019,0,0,0,0,0,0,0,-1.4891,-1.4897,-1.4956,-1.494,-1.494,-1.4938,-1.4941,-1.4972,-1.498,-1.4957,-1.4956,-1.496,-1.4991,-1.5002,-1.5005,-1.5053,-1.5015,-1.5017,-1.5019,-1.502,-1.5137,-1.5138,0,0,0,0,0,0,-1.4889,-1.4895,-1.4955,-1.4957,-1.4913,-1.494,-1.4944,-1.4959,-1.498,-1.4982,-1.4961,-1.496,-1.4998,-1.5002,-1.5007,-1.5058,-1.5018,-1.502,-1.5022,-1.5135,-1.5137,-1.5138,0,0,0,0,0,0,-1.4887,-1.4894,-1.4953,-1.4926,-1.4933,-1.4943,-1.4959,-1.496,-1.4971,-1.4983,-1.4985,-1.4971,-1.4997,-1.5003,-1.5039,-1.5059,-1.5022,-1.5024,-1.5133,-1.5136,-1.5138,-1.5161,0,0,0,0,0,0,-1.4885,-1.4893,-1.4909,-1.4926,-1.4935,-1.4984,-1.4961,-1.4962,-1.4976,-1.4974,-1.4993,-1.4995,-1.4996,-1.5035,-1.5041,-1.5062,-1.5026,-1.5132,-1.5134,-1.5137,-1.5159,-1.5164,-1.5169,0,0,0,0,0,-1.4882,-1.4914,-1.491,-1.4917,-1.4955,-1.4985,-1.499,-1.4991,-1.4977,-1.4994,-1.5002,-1.4994,-1.5056,-1.5038,-1.5046,-1.5068,-1.513,-1.5134,-1.5137,-1.5156,-1.5163,-1.5168,0,0,0,0,0,0,-1.49,-1.4917,-1.4912,-1.4951,-1.4967,-1.4983,-1.5003,-1.4998,-1.5018,-1.5015,-1.5017,-1.5021,-1.5058,-1.5067,-1.5046,-1.5111,-1.5091,-1.5096,-1.5104,-1.511,-1.5115,-1.5112,-1.5029,0,0,0,0,0,-1.4908,-1.4931,-1.4945,-1.4978,-1.4986,-1.4994,-1.5007,-1.5007,-1.5023,-1.503,-1.504,-1.5057,-1.508,-1.5096,-1.5118,-1.516,-1.5164,-1.5179,-1.5184,-1.5188,-1.5192,-1.5216,-1.5223,-1.5149,-1.5149,-1.5149,0,0,-1.4926,-1.4938,-1.4953,-1.4982,-1.4994,-1.5019,-1.4999,-1.5026,-1.5044,-1.5034,-1.5068,-1.5077,-1.5095,-1.5135,-1.5153,-1.5143,-1.5214,-1.5192,-1.5195,-1.5197,-1.522,-1.5227,-1.5233,-1.5151,-1.5151,-1.5151,0,0,-1.4971,-1.4982,-1.5011,-1.5024,-1.5043,-1.5047,-1.5054,-1.5071,-1.5077,-1.5111,-1.5104,-1.5126,-1.5166,-1.518,-1.5192,-1.5243,-1.5237,-1.5251,-1.5276,-1.5299,-1.5305,-1.531,-1.5329,-1.5335,-1.5255,-1.5255,-1.5255,0,-1.4991,-1.5027,-1.5027,-1.5054,-1.5068,-1.506,-1.509,-1.5102,-1.5127,-1.5137,-1.5126,-1.5176,-1.5188,-1.5231,-1.5244,-1.5254,-1.5262,-1.5248,-1.5304,-1.5309,-1.5314,-1.5332,-1.5339,-1.5256,-1.5256,-1.5256,-1.5256,0,-1.505,-1.5075,-1.5097,-1.5121,-1.5137,-1.5165,-1.5171,-1.5187,-1.5186,-1.5192,-1.5228,-1.5242,-1.5267,-1.5277,-1.5276,-1.532,-1.5314,-1.5303,-1.5284,-1.5323,-1.5339,-1.5346,-1.5259,-1.5258,-1.5258,-1.5257,0,0,-1.5107,-1.5132,-1.5139,-1.515,-1.5171,-1.519,-1.5219,-1.5243,-1.5257,-1.5275,-1.5299,-1.5334,-1.5325,-1.5339,-1.5339,-1.536,-1.54,-1.5347,-1.5347,-1.5356,-1.545,-1.5457,-1.5465,-1.5396,-1.5397,-1.5398,-1.5448,0,-1.5154,-1.5203,-1.5205,-1.525,-1.5273,-1.5267,-1.5292,-1.5307,-1.5314,-1.5335,-1.5343,-1.5367,-1.5353,-1.5362,-1.5382,-1.5391,-1.5418,-1.5387,-1.5419,-1.542,-1.5414,-1.5474,-1.5481,-1.5528,-1.5455,-1.5456,-1.5457,0,-1.5214,-1.5234,-1.5281,-1.5299,-1.5309,-1.5331,-1.5354,-1.5374,-1.5392,-1.5396,-1.5412,-1.5409,-1.5439,-1.5419,-1.546,-1.5439,-1.5452,-1.5459,-1.5461,-1.5464,-1.544,-1.5478,-1.5543,-1.555,-1.5467,-1.5466,-1.5465,0,-1.5251,-1.5289,-1.5323,-1.5332,-1.5354,-1.537,-1.5379,-1.5396,-1.5411,-1.5431,-1.544,-1.5464,-1.5477,-1.5496,-1.55,-1.5485,-1.5542,-1.5522,-1.5546,-1.5546,-1.5558,-1.5557,-1.5626,-1.5567,-1.5567,-1.5567,-1.5567,0,-1.5303,-1.5332,-1.534,-1.536,-1.5393,-1.5395,-1.5428,-1.5437,-1.5452,-1.5475,-1.5471,-1.5492,-1.5497,-1.552,-1.5523,-1.5558,-1.5563,-1.5568,-1.5568,-1.5568,-1.5567,-1.5577,-1.5573,-1.5569,-1.5568,-1.5568,-1.5568,0,-1.5349,-1.5355,-1.5391,-1.5409,-1.5414,-1.5437,-1.5452,-1.5473,-1.5479,-1.5508,-1.5515,-1.5525,-1.5552,-1.5558,-1.559,-1.5593,-1.5633,-1.5631,-1.5627,-1.5627,-1.5651,-1.5649,-1.5728,-1.5738,-1.5672,-1.5673,-1.5673,0,-1.5381,-1.5404,-1.5424,-1.5438,-1.5449,-1.5473,-1.5488,-1.5491,-1.5507,-1.553,-1.5547,-1.5573,-1.5594,-1.5637,-1.5648,-1.5673,-1.5671,-1.5697,-1.5675,-1.5674,-1.5672,-1.567,-1.5673,-1.5701,-1.5702,-1.5702,-1.5703,0,-1.5439,-1.5441,-1.5462,-1.5485,-1.5503,-1.5522,-1.5539,-1.5552,-1.5558,-1.5576,-1.5603,-1.562,-1.5652,-1.5678,-1.5703,-1.5714,-1.571,-1.571,-1.5717,-1.5717,-1.5714,-1.5716,-1.5639,-1.5708,-1.5707,-1.5707,-1.5707,-1.5707,-1.5479,-1.5499,-1.5516,-1.5541,-1.5554,-1.5571,-1.5591,-1.56,-1.5622,-1.5649,-1.565,-1.5679,-1.5698,-1.5731,-1.5743,-1.5766,-1.5759,-1.5769,-1.5771,-1.5774,-1.5776,-1.571,-1.5771,-1.5771,-1.5771,-1.5771,-1.5771,0,-1.5536,-1.5547,-1.5569,-1.5594,-1.5614,-1.5608,-1.5627,-1.5644,-1.567,-1.5687,-1.5708,-1.574,-1.5765,-1.5778,-1.5804,-1.582,-1.5819,-1.5827,-1.5826,-1.5829,-1.5781,-1.5773,-1.5828,-1.5828,-1.5828,-1.5828,-1.5828,-1.5828,-1.5568,-1.5602,-1.5606,-1.5646,-1.5657,-1.5686,-1.5698,-1.5713,-1.5727,-1.5762,-1.5783,-1.5792,-1.5807,-1.5834,-1.5858,-1.5861,-1.5871,-1.588,-1.5882,-1.5838,-1.5832,-1.5826,-1.5818,-1.5882,-1.5882,-1.5928,-1.5928,-1.5928]}]]